| DS18B20 | SHTC3 | ||||||
|---|---|---|---|---|---|---|---|
| ID | Date d/m/Y & Time | data1 สูง | data2 ต่ำ | data3 นอก | temp pcb | hum pcb | Time |
| 4373 | 20/03/2026 23:54:41 | 28.9  | 28.9  | 27.2  | 28.7  | 72.7  | 23:54 |
| 4372 | 20/03/2026 23:49:59 | 28.9  | 28.9  | 27.1  | 28.7  | 72.7  | 23:49 |
| 4371 | 20/03/2026 23:45:17 | 28.9  | 28.9  | 27.1  | 28.7  | 72.6  | 23:45 |
| 4370 | 20/03/2026 23:40:35 | 28.9  | 29.0  | 27.1  | 28.7  | 72.6  | 23:40 |
| 4369 | 20/03/2026 23:35:54 | 28.9  | 29.0  | 27.1  | 28.7  | 72.6  | 23:35 |
| 4368 | 20/03/2026 23:31:13 | 28.9  | 29.0  | 27.2  | 28.7  | 72.6  | 23:31 |
| 4367 | 20/03/2026 23:26:31 | 28.9  | 29.0  | 27.2  | 28.6  | 72.5  | 23:26 |
| 4366 | 20/03/2026 23:21:49 | 28.9  | 29.0  | 27.2  | 28.9  | 72.5  | 23:21 |
| 4365 | 20/03/2026 23:17:08 | 28.9  | 29.0  | 27.2  | 28.7  | 72.5  | 23:17 |
| 4364 | 20/03/2026 23:12:26 | 28.9  | 29.0  | 27.2  | 28.7  | 72.4  | 23:12 |
| 4363 | 20/03/2026 23:07:45 | 28.9  | 29.1  | 27.2  | 28.9  | 72.4  | 23:07 |
| 4362 | 20/03/2026 23:03:02 | 28.9  | 29.1  | 27.2  | 28.9  | 72.4  | 23:03 |
| 4361 | 20/03/2026 22:58:21 | 28.9  | 29.1  | 27.4  | 29.0  | 72.3  | 22:58 |
| 4360 | 20/03/2026 22:53:39 | 29.0  | 29.1  | 27.3  | 28.8  | 72.3  | 22:53 |
| 4359 | 20/03/2026 22:48:58 | 29.0  | 29.1  | 27.3  | 28.7  | 72.1  | 22:48 |
| 4358 | 20/03/2026 22:44:16 | 29.0  | 29.1  | 27.3  | 28.9  | 72.2  | 22:44 |
| 4357 | 20/03/2026 22:39:34 | 29.0  | 29.1  | 27.4  | 28.8  | 72.0  | 22:39 |
| 4356 | 20/03/2026 22:34:53 | 29.0  | 29.1  | 27.4  | 28.9  | 72.1  | 22:34 |
| 4355 | 20/03/2026 22:30:11 | 28.9  | 29.1  | 27.4  | 29.0  | 72.0  | 22:30 |
| 4354 | 20/03/2026 22:25:29 | 28.9  | 29.1  | 27.4  | 28.9  | 72.1  | 22:25 |
| 4353 | 20/03/2026 22:20:47 | 28.9  | 29.1  | 27.4  | 28.6  | 71.9  | 22:20 |
| 4352 | 20/03/2026 22:16:05 | 28.9  | 29.1  | 27.4  | 28.7  | 72.0  | 22:16 |
| 4351 | 20/03/2026 22:11:23 | 28.9  | 29.1  | 27.4  | 28.9  | 71.8  | 22:11 |
| 4350 | 20/03/2026 22:06:42 | 29.0  | 29.1  | 27.5  | 28.8  | 71.8  | 22:06 |